Powrót do katalogu

STARLINK-37442

AktywnyŁącznośćSSO
NORAD 68811·PAYLOAD·🇺🇸 United States

Wystrzelony Apr 23, 2026 z Vandenberg Space Force Base

Loading…

Następne Przeloty (najbliższe 24 godziny)

TLE

ŚwieżeSource: CelesTrak SupGP

Epoka: Sep 15, 2026, 03:25 UTC

1 68811C 26089K   26258.14284722 -.00037590  00000+0 -11666-2 0  2587
2 68811  97.2854 103.9639 0001946  88.7988  28.7535 15.33464550    17

Śledź STARLINK-37442 w czasie rzeczywistym z AllMySat

Download on the App Store